Location: Champaign/Urbana Astronomical Society Observatory
(40.0333°N, 88.2833°W)
Time: 22:39:01
(UTC-05:00)

AIST 2D - Pass Details

Date: 27 May 2019
Orbit: 456 x 473 km, 97.2° (Epoch: 15 June)

Event Time Altitude Azimuth Distance (km) Brightness Sun altitude
Rises 23:29:03 0° 17° (NNE) 2,499 ? -25.7°
Reaches altitude 10° 23:31:09 10° 23° (NNE) 1,616 ? -25.8°
Enters shadow 23:32:36 22° 33° (NNE) 1,049 ? -25.9°
